Location: Grust
(42.8833°N, 0.0333°W)
Time: 18:43:13
(UTC+00:00)

GRACE-FO 2 - Pass Details

Date: 25 October 2020
Orbit: 481 x 505 km, 89.0° (Epoch: 23 November)

Event Time Altitude Azimuth Distance (km) Brightness Sun altitude
Rises 17:26:56 0° 2° (N) 2,556 8.1 -5.3°
Reaches altitude 10° 17:29:02 10° 4° (N) 1,669 7.1 -5.7°
Maximum altitude 17:32:39 74° 91° (E) 505 4.5 -6.4°
Drops below altitude 10° 17:36:14 10° 176° (S) 1,655 7.4 -7.0°
Sets 17:38:18 0° 178° (S) 2,531 8.3 -7.4°
